| time (UTC) | temp C | wind direction | speed KPH | gust KPH | rain 1hr cm | rain 24hr cm | rain mn cm | humidity % | barometer mb |
| 20260505160112 | 23 | 120 | 22.5 | 0.0 | 0.00 | 0.00 | 0.00 | 25 | 1005.0 |
| 20260505153105 | 25 | 120 | 19.3 | 0.0 | 0.00 | 0.00 | 0.00 | 23 | 1005.0 |
| 20260505152048 | 23 | 120 | 19.3 | 0.0 | 0.00 | 0.00 | 0.00 | 27 | |
| 20260505150105 | 25 | 120 | 20.9 | 0.0 | 0.00 | 0.00 | 0.00 | 25 | 1006.0 |
| 20260505140106 | 23 | 140 | 22.5 | 0.0 | 0.00 | 0.00 | 0.00 | 29 | 1007.0 |
| 20260505130241 | 22 | 150 | 20.9 | 0.0 | 0.00 | 0.00 | 0.00 | 33 | 1007.0 |
| 20260505123110 | 22 | 140 | 20.9 | 0.0 | 0.00 | 0.00 | 0.00 | 35 | 1008.0 |
| 20260505122034 | 22 | 140 | 22.5 | 0.0 | 0.00 | 0.00 | 0.00 | 40 | |
| 20260505120113 | 22 | 150 | 19.3 | 0.0 | 0.00 | 0.00 | 0.00 | 40 | 1008.0 |
| 20260505113110 | 21 | 140 | 19.3 | 0.0 | 0.00 | 0.00 | 0.00 | 43 | 1008.0 |
| 20260505112034 | 21 | 120 | 19.3 | 0.0 | 0.00 | 0.00 | 0.00 | 43 | |
| 20260505110106 | 21 | 120 | 19.3 | 0.0 | 0.00 | 0.00 | 0.00 | 43 | 1008.0 |
| 20260505102035 | 18 | 120 | 19.3 | 0.0 | 0.00 | 0.00 | 0.00 | 45 | |
| 20260505100241 | 18 | 110 | 16.1 | 0.0 | 0.00 | 0.00 | 0.00 | 48 | 1009.0 |
| 20260505093110 | 17 | 100 | 16.1 | 0.0 | 0.00 | 0.00 | 0.00 | 48 | 1009.0 |
| 20260505092033 | 17 | 110 | 19.3 | 0.0 | 0.00 | 0.00 | 0.00 | 48 | |
| 20260505090119 | 17 | 110 | 19.3 | 0.0 | 0.00 | 0.00 | 0.00 | 48 | 1009.0 |
| 20260505083109 | 15 | 110 | 16.1 | 0.0 | 0.00 | 0.00 | 0.00 | 51 | 1009.0 |
| 20260505082034 | 16 | 110 | 14.5 | 0.0 | 0.00 | 0.00 | 0.00 | 51 | |
| 20260505080245 | 15 | 110 | 14.5 | 0.0 | 0.00 | 0.00 | 0.00 | 51 | 1009.0 |
| 20260505073110 | 15 | 110 | 14.5 | 0.0 | 0.00 | 0.00 | 0.00 | 51 | 1009.0 |
| 20260505072034 | 13 | 110 | 14.5 | 0.0 | 0.00 | 0.00 | 0.00 | 50 | |
| 20260505070106 | 13 | 110 | 12.9 | 0.0 | 0.00 | 0.00 | 0.00 | 50 | 1009.0 |
| 20260505063110 | 13 | 120 | 9.7 | 0.0 | 0.00 | 0.00 | 0.00 | 50 | 1010.0 |
| 20260505062035 | 13 | 130 | 11.3 | 0.0 | 0.00 | 0.00 | 0.00 | 50 | |
| 20260505060112 | 13 | 130 | 11.3 | 0.0 | 0.00 | 0.00 | 0.00 | 47 | 1010.0 |
| 20260505053110 | 12 | 80 | 8.0 | 0.0 | 0.00 | 0.00 | 0.00 | 50 | 1009.0 |
| 20260505052032 | 12 | 90 | 8.0 | 0.0 | 0.00 | 0.00 | 0.00 | 50 | |
| 20260505050105 | 12 | 80 | 8.0 | 0.0 | 0.00 | 0.00 | 0.00 | 50 | 1009.0 |
| 20260505040240 | 11 | 30 | 9.7 | 0.0 | 0.00 | 0.00 | 0.00 | 57 | 1009.0 |
| 20260505033110 | 12 | 60 | 12.9 | 0.0 | 0.00 | 0.00 | 0.00 | 54 | 1009.0 |
| 20260505032032 | 12 | 60 | 14.5 | 0.0 | 0.00 | 0.00 | 0.00 | 54 | |
| 20260505030114 | 12 | 60 | 12.9 | 0.0 | 0.00 | 0.00 | 0.00 | 54 | 1010.0 |
| 20260505023109 | 13 | 80 | 8.0 | 0.0 | 0.00 | 0.00 | 0.00 | 47 | 1010.0 |
| 20260505022033 | 13 | 90 | 8.0 | 0.0 | 0.00 | 0.00 | 0.00 | 47 | |
| 20260505020238 | 13 | 90 | 11.3 | 0.0 | 0.00 | 0.00 | 0.00 | 47 | 1010.0 |
| 20260505013110 | 13 | 90 | 12.9 | 0.0 | 0.00 | 0.00 | 0.00 | 47 | 1010.0 |
| 20260505012035 | 13 | 90 | 14.5 | 0.0 | 0.00 | 0.00 | 0.00 | 47 | |
| 20260505010239 | 13 | 90 | 14.5 | 0.0 | 0.00 | 0.00 | 0.00 | 47 | 1010.0 |
| 20260505003110 | 15 | 90 | 12.9 | 0.0 | 0.00 | 0.00 | 0.00 | 44 | 1011.0 |
| 20260505002040 | 15 | 90 | 11.3 | 0.0 | 0.00 | 0.00 | 0.00 | 44 | |
| 20260505000112 | 15 | 90 | 12.9 | 0.0 | 0.00 | 0.00 | 0.00 | 44 | 1011.0 |
| 20260504233110 | 16 | 90 | 9.7 | 0.0 | 0.00 | 0.00 | 0.00 | 41 | 1011.0 |
| 20260504232105 | 16 | 90 | 11.3 | 0.0 | 0.00 | 0.00 | 0.00 | 41 | |
| 20260504230105 | 16 | 90 | 9.7 | 0.0 | 0.00 | 0.00 | 0.00 | 41 | 1011.0 |
| 20260504223116 | 16 | 90 | 12.9 | 0.0 | 0.00 | 0.00 | 0.00 | 41 | 1012.0 |
| 20260504222034 | 17 | 90 | 14.5 | 0.0 | 0.00 | 0.00 | 0.00 | 39 | |
| 20260504220106 | 17 | 90 | 14.5 | 0.0 | 0.00 | 0.00 | 0.00 | 39 | 1012.0 |
| 20260504213110 | 17 | 100 | 12.9 | 0.0 | 0.00 | 0.00 | 0.00 | 39 | 1012.0 |
| 20260504212033 | 17 | 100 | 14.5 | 0.0 | 0.00 | 0.00 | 0.00 | 42 | |
| 20260504210111 | 17 | 100 | 14.5 | 0.0 | 0.00 | 0.00 | 0.00 | 39 | 1012.0 |
| 20260504203110 | 17 | 90 | 12.9 | 0.0 | 0.00 | 0.00 | 0.00 | 39 | 1012.0 |
| 20260504202033 | 17 | 110 | 11.3 | 0.0 | 0.00 | 0.00 | 0.00 | 42 | |
| 20260504200113 | 18 | 100 | 11.3 | 0.0 | 0.00 | 0.00 | 0.00 | 37 | 1012.0 |
| 20260504193109 | 17 | 120 | 12.9 | 0.0 | 0.00 | 0.00 | 0.00 | 42 | 1012.0 |
| 20260504192035 | 18 | 120 | 14.5 | 0.0 | 0.00 | 0.00 | 0.00 | 39 | |
| 20260504190104 | 18 | 110 | 12.9 | 0.0 | 0.00 | 0.00 | 0.00 | 39 | 1012.0 |
| 20260504183110 | 20 | 120 | 9.7 | 0.0 | 0.00 | 0.00 | 0.00 | 34 | 1012.0 |
| 20260504182036 | 20 | 120 | 11.3 | 0.0 | 0.00 | 0.00 | 0.00 | 34 | |
| 20260504180112 | 20 | 130 | 11.3 | 0.0 | 0.00 | 0.00 | 0.00 | 34 | 1012.0 |
| 20260504173110 | 22 | 140 | 12.9 | 0.0 | 0.00 | 0.00 | 0.00 | 28 | 1012.0 |
| 20260504172035 | 22 | 140 | 14.5 | 0.0 | 0.00 | 0.00 | 0.00 | 33 | |
| 20260504170111 | 22 | 140 | 14.5 | 0.0 | 0.00 | 0.00 | 0.00 | 28 | 1012.0 |